Lid_Strength_Index
1 1 1 1 1 1 1 0 0 0 0 0 0 0 0 0 -0 0 0 0 1 1 0 1 1 0 1 1 1 1 1 1 3 3 1 2 2 1 0 -0 1 1 3
1 1 1 1 1 1 1 1 0 0 0 0 0 0 0 0 -0 0 1 1 1 1 1 1 1 1 1 1 1 1 1 1 2 4 3 3 3 2 2 2 2 2 2
1 1 1 1 1 1 1 0 0 0 0 0 0 1 1 0 0 0 0 1 1 1 1 2 1 1 2 1 1 1 1 1 1 2 3 3 4 4 4 3 3 3 3
1 1 2 1 1 1 1 1 0 0 0 0 0 0 0 0 0 0 1 1 1 1 1 1 1 1 1 1 1 1 1 2 2 2 3 4 4 4 4 4 4 4 4
2 2 2 1 1 1 1 1 0 0 0 0 0 0 0 0 0 0 1 1 1 1 1 1 1 1 1 1 1 1 1 2 2 3 4 4 5 5 5 4 5 5 5
2 2 1 1 1 1 1 1 1 1 0 0 1 1 1 1 9 7 2 1 1 1 2 1 1 2 3 4 3 3 1 2 2 4 4 4 4 4 4 5 6 6 8
2 2 2 1 2 1 1 1 1 1 1 1 1 1 1 0 9 9 6 0 1 1 1 1 2 1 1 1 5 5 5 5 3 1 3 3 4 4 3 5 5 5 5
2 2 2 2 2 1 1 1 1 1 1 1 1 1 1 1 10 9 7 0 1 1 1 1 2 2 1 1 1 1 1 0 -0 -0 0 1 1 1 2 3 4 5 5
2 2 2 1 2 1 2 1 1 1 1 1 1 1 1 1 10 10 4 1 1 1 1 2 2 3 7 7 1 1 1 2 6 6 6 7 8 7 4 4 5 5 6
2 2 1 1 1 2 1 1 1 1 1 1 1 1 5 1 10 10 4 1 2 3 3 3 8 5 10 8 1 1 3 2 2 2 2 5 3 5 6 2 3 5 5
1 1 1 1 1 1 1 1 1 1 1 1 1 1 1 1 5 10 7 1 2 3 3 3 4 11 11 9 5 1 2 1 4 1 2 2 2 3 3 2 2 1 3
1 1 1 1 1 1 1 1 1 1 2 2 2 2 1 2 8 10 9 6 5 2 3 3 6 12 12 11 6 9 8 5 2 3 4 4 4 4 4 3 2 1 0
2 2 1 1 1 1 1 2 2 2 2 3 2 2 2 1 3 11 11 9 7 2 2 7 12 12 12 11 11 10 8 3 3 4 4 4 3 3 3 2 1 1 1
2 2 1 2 2 1 1 1 2 2 3 2 3 3 2 2 2 2 2 4 8 7 9 7 8 8 8 8 7 5 3 3 3 3 3 3 2 2 2 2 2 2 2
2 2 2 2 2 2 2 2 2 1 2 2 2 2 2 3 2 5 4 3 4 6 6 4 4 4 5 4 3 3 2 2 3 2 3 2 2 2 1 0 0 1 1
2 2 2 2 2 2 3 3 12 9 9 8 7 4 1 7 11 10 11 11 11 10 4 4 4 4 4 3 3 3 2 3 2 1 1 1 1 1 1 1 0 1 1
2 2 2 3 2 2 2 3 3 7 12 12 10 9 8 8 12 12 12 12 12 7 3 3 3 3 3 3 2 2 2 1 0 1 1 1 1 1 1 1 1 1 1
1 7 2 2 2 2 2 2 2 3 3 2 10 8 12 12 13 13 12 9 3 4 2 2 3 2 2 2 2 1 1 1 1 1 1 1 1 1 1 1 1 1 1
2 2 1 1 1 2 1 2 2 2 2 2 4 8 12 13 13 13 11 1 2 2 2 2 1 1 1 1 1 1 1 1 1 1 1 1 1 1 1 1 1 7 5
1 6 4 2 2 2 2 2 2 2 2 2 2 2 6 6 4 5 4 1 1 1 1 1 1 1 1 1 1 1 1 1 1 1 1 1 0 0 1 1 1 1 1
1 2 7 1 2 2 2 2 2 2 2 2 2 2 10 1 2 2 2 1 1 1 1 1 1 0 0 0 0 1 1 1 1 1 1 0 0 1 1 1 1 1 1
1 1 2 2 1 2 2 1 1 2 2 2 2 4 13 1 1 1 1 1 1 0 -0 0 0 0 0 0 0 1 1 1 1 0 0 0 0 0 1 1 1 1 1
1 2 2 2 1 5 2 1 2 2 2 1 1 2 5 1 1 1 1 0 0 0 -0 -0 -0 -0 -0 -1 -1 -0 0 0 -0 -0 0 0 0 1 1 1 1 1 1
1 1 2 2 2 2 2 2 2 5 2 1 1 1 1 1 1 1 1 0 0 -0 -0 -0 -0 -0 -0 -1 -1 -1 -1 -1 -1 -1 -1 0 0 1 1 1 1 1 1
2 2 2 2 2 2 2 1 1 1 1 1 1 0 0 0 0 0 0 0 -0 -0 -0 -0 -0 -1 -1 -1 -1 -1 2 11 2 4 -1 -0 -0 0 0 1 1 1 1
4 4 3 3 3 2 2 2 2 2 2 1 1 1 1 1 0 1 0 0 0 -0 -0 -0 -0 -1 -1 -1 -1 4 11 13 6 12 0 -0 0 0 0 1 1 1 1